[[{"header":{"parameterUnit":"m.s-1","parameterCategory":1,"la1":30.2991,"la2":30.254,"lo1":-89.0895,"lo2":-89.0444,"dy":0.0017,"dx":0.0017,"nx":28,"ny":28,"refTime":"2023-06-28T21:00:00:Z","depth":0,"parameterNumber":2,"parameterNumberName":"U-component_of_WINDS"},"data":[0,0,0,0,0,0,0,0,0,0,0,0,0,0,0,0,0,0,0,0,0,0,0,0,0,0,0,0,0,0,0,0,0,0,0,0,0,0,0,0,0,0,0,0,0,0,0,0,0,0,0,0,0,0,0,0,0,0,-0.4657,-0.4656,0,-0.4563,-0.4562,-0.4561,-0.4525,-0.4525,-0.4526,-0.4526,-0.4429,-0.4426,-0.4423,0,0,0,0,0,0,0,0,0,0,0,0,0,-0.4805,-0.4802,-0.4657,-0.4656,-0.4655,-0.4564,-0.4562,-0.4561,-0.4525,-0.4525,-0.4526,-0.4526,-0.443,-0.4426,-0.4423,0,0,0,0,0,0,0,0,0,0,0,0,0,-0.4729,-0.4801,-0.4657,-0.4626,-0.4622,-0.4564,-0.4562,-0.4561,-0.4525,-0.4525,-0.4526,-0.4526,-0.4431,-0.4427,-0.4422,-0.4388,0,0,-0.4409,-0.4407,0,0,0,0,0,0,0,0,-0.4733,-0.4723,-0.4632,-0.4628,-0.4624,-0.4556,-0.4579,-0.4503,-0.4525,-0.4562,-0.4526,-0.4526,-0.4471,-0.4463,-0.4445,-0.4383,-0.4379,-0.4409,-0.4406,-0.4405,-0.4403,0,0,0,0,0,0,0,-0.4738,-0.4727,-0.462,-0.463,-0.4625,-0.4616,-0.4606,-0.4564,-0.4515,-0.4559,-0.4556,-0.4545,-0.4469,-0.4449,-0.4442,-0.4378,-0.4409,-0.4405,-0.4403,-0.4401,-0.4284,-0.4284,0,0,0,0,0,0,-0.4749,-0.4732,-0.4623,-0.4617,-0.4681,-0.4613,-0.4602,-0.4578,-0.4515,-0.4506,-0.4545,-0.4544,-0.4456,-0.4447,-0.4439,-0.4394,-0.4405,-0.4401,-0.4398,-0.4285,-0.4284,-0.4284,0,0,0,0,0,0,-0.4752,-0.474,-0.4627,-0.4674,-0.4659,-0.461,-0.4583,-0.4575,-0.4556,-0.4505,-0.4496,-0.4534,-0.4456,-0.4445,-0.4401,-0.4391,-0.4399,-0.4395,-0.4286,-0.4285,-0.4284,-0.4306,0,0,0,0,0,0,-0.4757,-0.4741,-0.4727,-0.4674,-0.4656,-0.4591,-0.4583,-0.4573,-0.4549,-0.4546,-0.4492,-0.4484,-0.4455,-0.4408,-0.4397,-0.4385,-0.4391,-0.4286,-0.4285,-0.4284,-0.4306,-0.4306,-0.4306,0,0,0,0,0,-0.4762,-0.4737,-0.4727,-0.4714,-0.4638,-0.459,-0.458,-0.4549,-0.4548,-0.4534,-0.4502,-0.4486,-0.4394,-0.4404,-0.4391,-0.4378,-0.4287,-0.4285,-0.4284,-0.4306,-0.4306,-0.4306,0,0,0,0,0,0,-0.479,-0.4729,-0.4717,-0.4674,-0.4638,-0.4584,-0.4566,-0.455,-0.4512,-0.4512,-0.4473,-0.4461,-0.4421,-0.4395,-0.4407,-0.4341,-0.4339,-0.4335,-0.436,-0.4359,-0.4359,-0.4366,-0.4388,0,0,0,0,0,-0.4792,-0.4758,-0.4706,-0.4673,-0.4656,-0.4614,-0.4592,-0.4571,-0.4531,-0.4515,-0.448,-0.4442,-0.4405,-0.4381,-0.4343,-0.4302,-0.429,-0.4287,-0.4287,-0.4287,-0.4284,-0.4261,-0.4259,-0.428,-0.428,-0.428,0,0,-0.4794,-0.4756,-0.4737,-0.4678,-0.4647,-0.4613,-0.4601,-0.4565,-0.454,-0.451,-0.4467,-0.444,-0.4395,-0.4352,-0.4332,-0.4329,-0.4276,-0.4286,-0.4286,-0.4283,-0.4259,-0.4258,-0.4256,-0.4279,-0.4279,-0.4279,0,0,-0.478,-0.4748,-0.4717,-0.4687,-0.4641,-0.4613,-0.4606,-0.4555,-0.4536,-0.4493,-0.447,-0.4439,-0.4375,-0.4344,-0.432,-0.4296,-0.428,-0.4285,-0.4285,-0.4263,-0.4261,-0.4259,-0.4251,-0.4248,-0.4282,-0.4283,-0.4283,0,-0.4788,-0.4736,-0.4703,-0.4669,-0.4644,-0.4616,-0.4584,-0.4557,-0.4501,-0.4484,-0.4482,-0.4402,-0.437,-0.432,-0.4315,-0.4296,-0.4287,-0.4291,-0.4264,-0.4262,-0.426,-0.4251,-0.4248,-0.4283,-0.4283,-0.4283,-0.4283,0,-0.4748,-0.4712,-0.4693,-0.464,-0.4613,-0.458,-0.4543,-0.4519,-0.4501,-0.4474,-0.443,-0.439,-0.4345,-0.4332,-0.4313,-0.428,-0.428,-0.4272,-0.4268,-0.4259,-0.4251,-0.4247,-0.4285,-0.4284,-0.4284,-0.4284,0,0,-0.4748,-0.4679,-0.4672,-0.4648,-0.4596,-0.4567,-0.4534,-0.449,-0.447,-0.4433,-0.4404,-0.4351,-0.4344,-0.4316,-0.4294,-0.4275,-0.4259,-0.4269,-0.4267,-0.4268,-0.4219,-0.4225,-0.4222,-0.4248,-0.4247,-0.4247,-0.4223,0,-0.4727,-0.4665,-0.4636,-0.4587,-0.4554,-0.4528,-0.4498,-0.4463,-0.4437,-0.4405,-0.4377,-0.434,-0.4333,-0.4317,-0.4296,-0.4265,-0.4248,-0.4266,-0.422,-0.4219,-0.4231,-0.4217,-0.4223,-0.4202,-0.4219,-0.4218,-0.4218,0,-0.4694,-0.4657,-0.4606,-0.4558,-0.4543,-0.4517,-0.4474,-0.4444,-0.4404,-0.4387,-0.4357,-0.4336,-0.43,-0.43,-0.4249,-0.4263,-0.4242,-0.4224,-0.4222,-0.4216,-0.4217,-0.421,-0.4195,-0.4192,-0.4212,-0.4213,-0.4213,0,-0.4699,-0.4637,-0.4598,-0.4578,-0.4521,-0.4504,-0.4479,-0.4439,-0.4415,-0.4378,-0.4362,-0.4322,-0.43,-0.4269,-0.4237,-0.424,-0.419,-0.4187,-0.4174,-0.4175,-0.4164,-0.4165,-0.4145,-0.4152,-0.4152,-0.4152,-0.4152,0,-0.4678,-0.4647,-0.4599,-0.4575,-0.454,-0.4507,-0.4473,-0.4447,-0.4412,-0.4382,-0.4357,-0.433,-0.429,-0.4258,-0.4234,-0.4196,-0.4186,-0.4171,-0.4164,-0.4172,-0.4174,-0.4158,-0.4158,-0.4151,-0.4151,-0.4151,-0.4152,0,-0.4677,-0.4644,-0.46,-0.455,-0.4537,-0.4513,-0.447,-0.4446,-0.442,-0.4383,-0.4372,-0.433,-0.4291,-0.4257,-0.4206,-0.4189,-0.415,-0.4143,-0.4164,-0.416,-0.4148,-0.415,-0.4116,-0.411,-0.4123,-0.4123,-0.4122,0,-0.4666,-0.4642,-0.459,-0.4568,-0.4544,-0.451,-0.4485,-0.4452,-0.4427,-0.438,-0.4362,-0.4321,-0.4287,-0.4226,-0.4191,-0.4151,-0.4142,-0.4133,-0.4136,-0.4145,-0.4142,-0.4143,-0.4141,-0.4133,-0.4133,-0.4133,-0.4133,0,-0.4649,-0.4634,-0.4599,-0.4559,-0.4531,-0.4497,-0.4463,-0.4447,-0.4407,-0.4381,-0.4341,-0.4315,-0.4262,-0.4222,-0.4179,-0.4154,-0.4137,-0.4133,-0.4128,-0.4135,-0.4148,-0.4141,-0.4163,-0.4134,-0.4134,-0.4133,-0.4133,-0.4133,-0.4642,-0.462,-0.4579,-0.4542,-0.4513,-0.4482,-0.4457,-0.4428,-0.4394,-0.4349,-0.4331,-0.4291,-0.4252,-0.4192,-0.4167,-0.4135,-0.4132,-0.4124,-0.4122,-0.4121,-0.4122,-0.4154,-0.4127,-0.4127,-0.4127,-0.4127,-0.4127,0,-0.4624,-0.4597,-0.4563,-0.4516,-0.4487,-0.4474,-0.4436,-0.4412,-0.4377,-0.4342,-0.4309,-0.4264,-0.4225,-0.4188,-0.4147,-0.4128,-0.412,-0.4119,-0.4119,-0.4114,-0.4127,-0.4136,-0.4127,-0.4127,-0.4127,-0.4127,-0.4127,-0.4127,-0.4611,-0.4572,-0.4552,-0.4499,-0.4472,-0.4432,-0.4411,-0.4383,-0.4355,-0.4305,-0.4273,-0.4249,-0.4213,-0.417,-0.4135,-0.4125,-0.4111,-0.4112,-0.41,-0.4113,-0.4113,-0.4113,-0.4121,-0.4109,-0.4109,-0.4089,-0.4089,-0.4089]},{"header":{"parameterUnit":"m.s-1","parameterCategory":1,"la1":30.2991,"la2":30.254,"lo1":-89.0895,"lo2":-89.0444,"dy":0.0017,"dx":0.0017,"nx":28,"ny":28,"refTime":"2023-06-28T21:00:00:Z","depth":0,"parameterNumber":3,"parameterNumberName":"V-component_of_WINDS"},"data":[0,0,0,0,0,0,0,0,0,0,0,0,0,0,0,0,0,0,0,0,0,0,0,0,0,0,0,0,0,0,0,0,0,0,0,0,0,0,0,0,0,0,0,0,0,0,0,0,0,0,0,0,0,0,0,0,0,0,4.6012,4.6012,0,4.5998,4.5998,4.5997,4.5998,4.5998,4.5999,4.5999,4.598,4.5979,4.5979,0,0,0,0,0,0,0,0,0,0,0,0,0,4.6038,4.6037,4.6012,4.6012,4.6012,4.5998,4.5998,4.5997,4.5998,4.5998,4.5999,4.5999,4.598,4.5979,4.5979,0,0,0,0,0,0,0,0,0,0,0,0,0,4.6025,4.6037,4.6012,4.6011,4.6011,4.5998,4.5998,4.5997,4.5998,4.5998,4.5999,4.5999,4.5981,4.598,4.5979,4.5965,0,0,4.5975,4.5975,0,0,0,0,0,0,0,0,4.6026,4.6024,4.6011,4.6011,4.6011,4.6,4.6,4.5986,4.5998,4.6003,4.5999,4.5999,4.5986,4.5985,4.5981,4.5964,4.5964,4.5975,4.5975,4.5974,4.5974,0,0,0,0,0,0,0,4.6027,4.6025,4.6006,4.6011,4.6011,4.601,4.6008,4.5997,4.5993,4.6002,4.6002,4.6001,4.5986,4.5982,4.5981,4.5963,4.5975,4.5974,4.5974,4.5973,4.5935,4.5935,0,0,0,0,0,0,4.6029,4.6026,4.6007,4.6006,4.6019,4.6009,4.6007,4.6003,4.5993,4.5992,4.6001,4.6001,4.5984,4.5982,4.598,4.5964,4.5974,4.5973,4.5972,4.5936,4.5935,4.5935,0,0,0,0,0,0,4.6029,4.6027,4.6007,4.6016,4.6013,4.6008,4.6003,4.6003,4.5999,4.5992,4.599,4.5998,4.5984,4.5982,4.5969,4.5963,4.5973,4.5972,4.5936,4.5935,4.5935,4.5932,0,0,0,0,0,0,4.603,4.6027,4.6023,4.6016,4.6013,4.5998,4.6003,4.6002,4.5997,4.5998,4.5988,4.5987,4.5984,4.5971,4.5968,4.5962,4.5971,4.5936,4.5936,4.5935,4.5933,4.5932,4.5931,0,0,0,0,0,4.6031,4.6022,4.6022,4.602,4.6008,4.5998,4.5996,4.5994,4.5997,4.5992,4.5988,4.5987,4.5965,4.597,4.5967,4.596,4.5937,4.5936,4.5935,4.5933,4.5932,4.5931,0,0,0,0,0,0,4.6026,4.6021,4.6022,4.601,4.6005,4.5998,4.5992,4.5992,4.5984,4.5985,4.5981,4.5979,4.5967,4.5962,4.5968,4.5947,4.5951,4.595,4.5951,4.5949,4.5948,4.5949,4.597,0,0,0,0,0,4.6025,4.6018,4.6013,4.6003,4.6,4.5997,4.5992,4.5991,4.5985,4.5982,4.5976,4.5969,4.596,4.5954,4.5946,4.5932,4.593,4.5926,4.5925,4.5924,4.5923,4.5915,4.5914,4.5932,4.5932,4.5932,0,0,4.602,4.6016,4.6012,4.6002,4.5998,4.599,4.5994,4.5986,4.598,4.598,4.5969,4.5964,4.5956,4.5943,4.5937,4.5939,4.5917,4.5923,4.5923,4.5922,4.5914,4.5913,4.5911,4.5931,4.5932,4.5932,0,0,4.6007,4.6004,4.5996,4.5991,4.5985,4.5983,4.5981,4.5974,4.5972,4.5961,4.596,4.5953,4.5938,4.5932,4.5927,4.5913,4.5913,4.591,4.5905,4.5897,4.5896,4.5895,4.589,4.5888,4.5909,4.5909,4.5909,0,4.6002,4.5992,4.5991,4.5983,4.5979,4.598,4.5971,4.5967,4.5957,4.5954,4.5956,4.5938,4.5932,4.5918,4.5915,4.5911,4.5908,4.5911,4.5896,4.5895,4.5894,4.5889,4.5887,4.5909,4.5909,4.5909,4.5909,0,4.5985,4.5978,4.5972,4.5965,4.596,4.5951,4.5949,4.5943,4.5943,4.594,4.5928,4.5922,4.5912,4.5909,4.5908,4.5895,4.5896,4.5897,4.5901,4.5892,4.5887,4.5886,4.5909,4.5909,4.5909,4.5909,0,0,4.5969,4.5962,4.596,4.5957,4.5951,4.5944,4.5936,4.5928,4.5924,4.5917,4.591,4.5897,4.5899,4.5893,4.5891,4.5885,4.5875,4.5887,4.5887,4.5885,4.586,4.5859,4.5857,4.5875,4.5874,4.5874,4.5861,0,4.5956,4.5943,4.5942,4.5929,4.5922,4.5923,4.5916,4.5911,4.5908,4.5901,4.5897,4.5889,4.5892,4.5888,4.5882,4.5877,4.587,4.5878,4.5867,4.5866,4.5869,4.5854,4.5853,4.5841,4.5859,4.5859,4.5858,0,4.5939,4.5934,4.5921,4.5916,4.5913,4.5906,4.5899,4.5893,4.5887,4.5885,4.5879,4.5878,4.5869,4.5874,4.586,4.5866,4.5861,4.5858,4.5858,4.5856,4.5862,4.5852,4.5837,4.5835,4.5856,4.5856,4.5856,0,4.5929,4.5918,4.5909,4.5906,4.59,4.5896,4.5893,4.5887,4.5882,4.5876,4.5873,4.5864,4.586,4.5853,4.585,4.5854,4.5836,4.5841,4.5834,4.5834,4.583,4.583,4.5813,4.5827,4.5827,4.5827,4.5827,0,4.5914,4.5906,4.5905,4.5899,4.589,4.5889,4.5879,4.5876,4.5872,4.5865,4.5865,4.5858,4.5854,4.5847,4.5844,4.5833,4.5831,4.5829,4.5828,4.5829,4.5829,4.5825,4.5826,4.5827,4.5827,4.5827,4.5827,0,4.5901,4.59,4.589,4.5886,4.5884,4.5878,4.5873,4.5867,4.5865,4.5856,4.5854,4.585,4.5841,4.5838,4.5826,4.5825,4.5812,4.5812,4.5815,4.5815,4.5808,4.5809,4.5788,4.5785,4.5801,4.5801,4.5801,0,4.5892,4.5886,4.5881,4.5877,4.5875,4.5868,4.5864,4.5863,4.5858,4.5851,4.5846,4.5837,4.5831,4.5817,4.5812,4.5803,4.5803,4.5796,4.5802,4.5803,4.5803,4.5803,4.5803,4.5795,4.5795,4.5795,4.5795,0,4.5876,4.5876,4.587,4.5864,4.586,4.5855,4.585,4.5846,4.5844,4.5839,4.5831,4.5826,4.5815,4.5807,4.5798,4.5794,4.5794,4.5793,4.5791,4.5792,4.5794,4.5793,4.5812,4.5794,4.5794,4.5794,4.5794,4.5794,4.5864,4.5859,4.5855,4.5849,4.5846,4.5841,4.5836,4.5833,4.5827,4.5819,4.5819,4.581,4.5804,4.5793,4.5788,4.5781,4.5782,4.5779,4.5779,4.5778,4.5778,4.5795,4.5779,4.5779,4.5779,4.5779,4.5779,0,4.5848,4.5846,4.584,4.5834,4.5829,4.5831,4.5826,4.5821,4.5814,4.5809,4.5803,4.5794,4.5786,4.5781,4.5773,4.5768,4.5767,4.5766,4.5766,4.5765,4.5777,4.5779,4.5766,4.5766,4.5766,4.5766,4.5766,4.5766,4.5839,4.5831,4.583,4.582,4.5818,4.581,4.5807,4.5803,4.5799,4.5789,4.5783,4.578,4.5775,4.5767,4.5759,4.5758,4.5755,4.5753,4.5752,4.5763,4.5764,4.5765,4.5768,4.5752,4.5752,4.5741,4.574,4.574]}]]